Other Surface Observations
Issued by NWS

Home | Current Version | Previous Version | Text Only | Print | Product List | Glossary On
Versions: 1 2 3 4 5 6 7 8 9 10 11 12 13 14 15 16 17 18 19 20 21 22 23 24 25 26 27 28 29 30 31 32 33 34 35 36 37 38 39 40 41 42 43 44 45 46 47 48 49 50
000
SXUS52 KTAE 211518
OSOTAE
OSOTAE
North Florida/South Alabama/Southwest Georgia Weather Roundup
National Weather Service Tallahassee Florida
1100 AM EDT TUE OCT 21 2014

Note: "fair" indicates few or no clouds below 12,000 feet with no
significant weather and/or obstructions to visibility.

!FLZ017-115-028-034-025-211600
...North Florida...

CITY           SKY/WX    TMP DP  RH WIND       PRES   REMARKS
TALLAHASSEE    MOSUNNY   75  56  51 NE5       30.02S
APALACHICOLA   MOSUNNY   75  59  57 NE9       30.01S
PERRY          SUNNY     72  61  68 NE7       30.02S
CROSS CITY       N/A     75  64  68 NE6       30.00S
JACKSONVILLE   MOSUNNY   76  66  71 N6        29.99S
$$

!FLZ112-006-005-002-011-211600
...Florida Panhandle...

CITY           SKY/WX    TMP DP  RH WIND       PRES   REMARKS
MARIANNA       SUNNY     71  57  61 N8        30.02F
BONIFAY        NOT AVBL
PANAMA CITY NW FAIR      72  54  53 MISG      30.02S
TYNDALL AFB    SUNNY     71  59  64 N8        30.02S
TYND DRONE APT FAIR      71  61  70 MISG      30.01
DE FUNIAK SPR  FAIR      69  54  58 N10       30.05S
EGLIN AFB      MOSUNNY   71  53  53 N7        30.03F
DESTIN         SUNNY     71  55  56 N7        30.04S
HURLBURT       SUNNY     71  49  45 NE8       30.03S
CRESTVIEW      SUNNY     70  54  56 VRB5      30.06S
PENSACOLA      SUNNY     69  52  54 N7        30.05S
$$

!ALZ063-066-211600
...South Alabama...

CITY           SKY/WX    TMP DP  RH WIND       PRES   REMARKS
DOTHAN         SUNNY     69  55  60 N6        30.08S
OZARK CAIRNS   SUNNY     68  55  61 VRB3      30.05S
FT RUCKER HELI SUNNY     68  53  58 N7        30.04S
RUCKER HELI 3  FAIR      67  55  64 NE5       30.08S
RUCKER HELI 2  FAIR      69  52  54 NE7       30.05S
FLORALA APT    SUNNY     70  54  56 NE7       30.06F
ANDALUSIA      SUNNY     75  52  44 E5        30.06S
TROY           SUNNY     69  53  56 NE7       30.07S
EUFALA         FAIR      69  55  60 CALM      30.04S
MOBILE         SUNNY     69  53  56 N8        30.07S
$$

!GAZ120>161-211600
...Southwest and South Central Georgia...

CITY           SKY/WX    TMP DP  RH WIND       PRES   REMARKS
THOMASVILLE    FAIR      72  57  60 N5        30.04R
BAINBRIDGE     SUNNY     73  57  56 N8        30.03F
MOODY AFB      SUNNY     74  55  51 N9        30.02R
VALDOSTA       SUNNY     74  54  49 N6        30.02R
MOULTRIE       SUNNY     72  59  64 N6        30.03S
BLAKELY        SUNNY     72  55  56 N3          N/A
ALBANY         SUNNY     73  55  53 NE5       30.05S
TIFTON         FAIR      70  53  53 N6        30.02S
FITZGERALD     FAIR      73  50  44 N6        30.05S
CORDELE        FAIR      69  56  61 CALM      30.04S
AMERICUS       FAIR      68  52  56 N6        30.05F
HOMERVILLE     FAIR      75  61  60 N3        30.02S
$$

!GMZ750-755-770-775-211600
...Coastal and Buoy Obs...

STATION/POSITION TIME  TEMP    WIND        PRES    VSBY  WAVE
                       AIR SEA DIR/SP/G                  HT/PER
                 (UTC) (F)     (DEG/KT/KT) (MB)    (MI)  (FT/S)
KEATON BEACH     1500   74      40/  6/  8 1016.1R
CEDAR KEY        1500   74      30/  5/  6 1015.9F
C TOWER          1500   72      40/ 11/ 13 1016.0R
APALACHICOLA BUO 1500   78 81  320/  4/  6 1015.4R         1/ 3
PANAMA CITY BUOY 1445   75 81   20/ 12/ 16 1015.8S         2/ 3
MOBILE BUOY      1414   75 80   50/ 12/ 14 1017.3R         2/ 5
ORANGE BCH AL BU 1500   71 78   20/ 14/ 17 1016.8R         2/ 4
$$



USA.gov is the U.S. government's official web portal to all federal, state and local government web resources and services.